Tracking 30260 objects as of 14-Feb-2025
HD Live streaming from Space Station
objects crossing your sky now

CZ-4 DEB

Track CZ-4 DEB now!
10-day predictions


NORAD ID: 23254
Int'l Code: 1990-081CK
Perigee: 717.3 km
Apogee: 812.2 km
Inclination: 98.5 °
Period: 100.0 minutes
Semi major axis: 7135 km
RCS: 0.0074 m2 (small)
Launch date: September 3, 1990
Source: People's Republic of China (PRC)
Launch site: Taiyaun Space Center, China (TSC)

Note: This is SATELLITE DEBRIS
Your satellite tracking list
Your tracking list is empty




NASA's NSSDC Master Catalog

Two Line Element Set (TLE):
1 23254U 90081CK  25043.12033333  .00001886  00000-0  59442-3 0  9996
2 23254  98.5301 102.9339 0066505 239.1424 120.3211 14.40264306607078
Source of the keplerian elements: AFSPC